User: anonymous   Login
Location: Unspecified
(0.0000°N, 0.0000°E)
Time: 11:04:00
(UTC+00:00)
Language:

SO-50 - Orbit

View from above orbital plane
View from above orbital plane
View from above satellite
View from above satellite

Ground track
Ground track

The orbit data is extracted from the following two-line orbital elements,

1 27607U 02058C   17268.93389968 +.00000076 +00000-0 +31473-4 0  9991
2 27607 064.5558 177.6905 0033822 046.7387 313.6529 14.75365815793840
Epoch (UTC): 25 September 2017 22:24:48
Eccentricity: 0.0033822
inclination: 64.5558°
perigee height: 620 km
apogee height: 668 km
right ascension of ascending node: 177.6905°
argument of perigee: 46.7387°
revolutions per day: 14.75365815
mean anomaly at epoch: 313.6529°
orbit number at epoch: 79384

The dashed part of the orbit path shows where the satellite is in the earth's shadow,  

DLR